Flag for Switzerland Weather past 2 weeks in Küssnacht, Schwyz, Switzerland

Now
56 °F

Cool.


Feels Like: 54 °F
Forecast: 32 / 54 °F
Wind: 6 mph from Northwest

Location: Altdorf

Current Time: May 23, 2015 at 12:53:02 PM

Latest Report: May 23, 2015 at 12:00 PM


Visibility: N/A

Pressure: 30.06 "Hg

Humidity: 72%

Dew point: 47 °F

Location of KüssnachtLocation

Historic Weather in Küssnacht — Graph

°F

Küssnacht temperature yesterday

Maximum temperature yesterday: 55 °F (at 6:00 PM)
Minimum temperature yesterday: 46 °F (at 12:00 AM)
Average temperature yesterday: 50 °F

Past Weeks' High & Low Weather Summary

 TemperatureHumidityPressure
High79 °F (May 13, 5:00 PM)95% (May 9, 3:00 AM)30.39 "Hg (May 9, 3:00 AM)
Low42 °F (May 15, 5:00 PM)32% (May 14, 1:00 AM)29.72 "Hg (May 18, 6:00 PM)
Average57 °F73%30.10 "Hg
* Reported May 8 11:00 AM — May 23 11:00 AM, Küssnacht, Weather by CustomWeather, © 2015

Note: Actual official high and low records may vary slightly from our data, if they occured in-between our weather recording intervals... More about our weather records

Advertising

Küssnacht weather history for previous 24 hours

 ConditionsComfort  
Time TempWeatherWind HumidityBarometerVisibility
11:00 AM
Sat, May 23
55 °FOvercast.2 mph77%30.07 "Hg9 mi
10:00 AM53 °FCool.3 mph76%30.09 "HgN/A
9:00 AM51 °FCool.1 mph80%30.09 "HgN/A
8:00 AM49 °FOvercast.2 mph87%30.10 "Hg9 mi
7:00 AM48 °FCool.1 mph87%30.09 "HgN/A
6:00 AM48 °FCool.2 mph92%30.10 "HgN/A
4:00 AM48 °FCool.1 mph91%30.11 "HgN/A
3:00 AM48 °FCool.2 mph92%30.12 "HgN/A
2:00 AM48 °FOvercast.2 mph90%30.13 "Hg11 mi
1:00 AM48 °FCool.2 mph90%30.15 "HgN/A
12:00 AM48 °FCool.3 mph90%30.16 "HgN/A
11:00 PM
Fri, May 22
49 °FOvercast.2 mph91%30.17 "Hg9 mi
10:00 PM50 °FCool.2 mph90%30.18 "HgN/A
9:00 PM52 °FCool.3 mph80%30.17 "HgN/A
8:00 PM52 °FOvercast.1 mph89%30.16 "Hg9 mi
7:00 PM54 °FCool.2 mph83%30.15 "HgN/A
6:00 PM55 °FCool.1 mph69%30.16 "HgN/A
5:00 PM54 °FOvercast.3 mph73%30.18 "Hg9 mi
4:00 PM54 °FCool.1 mph75%30.19 "HgN/A
3:00 PM53 °FCool.2 mph77%30.22 "HgN/A
2:00 PM53 °FOvercast.3 mph77%30.23 "Hg9 mi
1:00 PM53 °FCool.3 mph77%30.24 "HgN/A
12:00 PM53 °FCool.2 mph74%30.25 "HgN/A
Weather by CustomWeather, © 2015

See weather overviewHow to use our weather pages